Regional Weather Roundup
Issued by NWS

Home | Current Version | Previous Version | Text Only | Print | Product List | Glossary Off
Versions: 1 2 3 4 5 6 7 8 9 10 11 12 13 14 15 16 17 18 19 20 21 22 23 24 25 26 27 28 29 30 31 32 33 34 35 36 37 38 39 40 41 42 43 44 45 46 47 48 49 50

000
ASUS43 KMKX 280600
RWRWI

WISCONSIN REGIONAL WEATHER ROUNDUP
NATIONAL WEATHER SERVICE MILWAUKEE/SULLIVAN WI
100 AM CDT SAT MAR 28 2015

NOTE: "FAIR" INDICATES FEW OR NO CLOUDS BELOW 12,000 FEET WITH NO
SIGNIFICANT WEATHER AND/OR OBSTRUCTIONS TO VISIBILITY.

WIZ001-002-006>008-014>016-023>028-280700-
NORTHWEST WISCONSIN

CITY           SKY/WX    TMP DP  RH WIND       PRES   REMARKS
SUPERIOR ARPT  CLEAR     19  14  82 CALM      30.21S
ASHLAND        CLEAR     12  10  92 SW3       30.21S
6HR MIN TEMP:  12; 6HR MAX TEMP:  24;

HAYWARD        PTCLDY    20   8  60 CALM      30.17F
6HR MIN TEMP:  19; 6HR MAX TEMP:  33;

SIREN          FAIR      21  10  62 CALM      30.18S
CUMBERLAND     CLOUDY    25  16  68 CALM      30.17R
RICE LAKE      PTCLDY    23  16  74 CALM      30.19F
CHETEK         PTCLDY    21  14  74 CALM      30.19S
LADYSMITH      CLEAR     20  14  77 CALM      30.19R
EAU CLAIRE     NOT AVBL
MENOMONIE      PTCLDY    25  13  60 CALM      30.20S
NEW RICHMOND   PTCLDY    23  13  66 SE3       30.19R
OSCEOLA        MOCLDY    25  17  69 CALM      30.21S
$$

WIZ003>005-009-010-017-018-280700-
NORTH CENTRAL WISCONSIN

CITY           SKY/WX    TMP DP  RH WIND       PRES   REMARKS
MANITOWISH WTR CLEAR     11   6  81 CALM      30.15F
ARBOR VITAE    CLEAR     14   6  72 CALM      30.15S
WOODRUFF       CLEAR     14   6  72 CALM      30.15S
RHINELANDER    CLEAR     13   0  56 CALM      30.16S
6HR MIN TEMP:  11; 6HR MAX TEMP:  28;

EAGLE RIVER    CLEAR      7   2  80 CALM      30.15S
LAND O LAKES   FAIR       2  -1  85 CALM      30.17S
PHILLIPS       FAIR      17   8  68 CALM      30.16S
TOMAHAWK       CLEAR      9   5  84 CALM      30.17S
MEDFORD        CLEAR     17  11  80 CALM      30.16S
MERRILL        CLEAR     12   8  82 CALM      30.17S
$$

WIZ029-030-035-036-043>047-280700-
CENTRAL WISCONSIN

CITY           SKY/WX    TMP DP  RH WIND       PRES   REMARKS
WAUSAU         CLEAR     18   9  68 E8        30.17R WCI   8
6HR MIN TEMP:  17; 6HR MAX TEMP:  30;

MOSINEE        CLEAR     21  10  63 CALM      30.18S
MARSHFIELD     CLEAR     21  14  74 CALM      30.17S
6HR MIN TEMP:  20; 6HR MAX TEMP:  30;

STEVENS POINT  CLEAR     13   8  81 CALM      30.19S
WAUPACA        CLEAR     21  14  73 E3        30.22S
WAUTOMA        NOT AVBL
WISC RAPIDS    CLEAR     16   9  74 CALM      30.20S
6HR MIN TEMP:  15; 6HR MAX TEMP:  29;

CAMP DOUGLAS   NOT AVBL
$$

WIZ011>013-019>022-031-037>040-048>050-280700-
NORTHEAST WISCONSIN

CITY           SKY/WX    TMP DP  RH WIND       PRES   REMARKS
ANTIGO         CLEAR     16   9  73 SE6       30.18R WCI   7
SHAWANO        CLEAR     18  12  77 CALM      30.24R
OCONTO         CLEAR     17   7  66 E3        30.25S
STURGEON BAY   CLEAR     16   3  57 N5        30.25S WCI   9
6HR MIN TEMP:  16; 6HR MAX TEMP:  25;

GREEN BAY      CLEAR     20  12  71 CALM      30.24R
6HR MIN TEMP:  19; 6HR MAX TEMP:  27;

MANITOWOC      NOT AVBL
APPLETON       CLEAR     21  10  63 SE3       30.22S
CLINTONVILLE   CLEAR     19  12  73 CALM      30.23R
OSHKOSH        CLEAR     19  12  74 CALM      30.22S
6HR MIN TEMP:  17; 6HR MAX TEMP:  27;

$$

WIZ032>034-041-042-053>061-280700-
SOUTHWEST WISCONSIN

CITY           SKY/WX    TMP DP  RH WIND       PRES   REMARKS
LA CROSSE      CLEAR     24  13  62 CALM      30.21S
6HR MIN TEMP:  22; 6HR MAX TEMP:  34;

SPARTA         CLEAR     15  10  81 CALM      30.22S
VIROQUA        CLEAR     24  11  58 CALM      30.17F
BOSCOBEL       CLEAR     18  13  80 CALM      30.22S
6HR MIN TEMP:  18; 6HR MAX TEMP:  34;

PRAIRIE DU CHI PTCLDY    19  12  73 CALM      30.21S
PLATTEVILLE    CLEAR     22  14  71 CALM      30.19S
$$

WIZ056-057-062-063-064-067-068-280700-
SOUTH CENTRAL WISCONSIN

CITY           SKY/WX    TMP DP  RH WIND       PRES   REMARKS
REEDSBURG      CLEAR     20  10  64 CALM      30.20S
BARABOO/DELLS  CLEAR     21   9  59 S5        30.20S WCI  15
LONE ROCK      NOT AVBL
MINERAL POINT  CLEAR     23   9  54 CALM      30.18S
MADISON        CLEAR     23   8  52 S6        30.21S WCI  16
6HR MIN TEMP:  21; 6HR MAX TEMP:  31;

MIDDLETON      CLEAR     22   9  56 CALM      30.21S
WATERTOWN      CLEAR     17  13  84 CALM      30.22S
MONROE         CLEAR     23  12  63 SE6       30.20S WCI  16
JANESVILLE     CLEAR     23  16  74 CALM      30.22S
$$

WIZ051-052-058>065-066-070>072-280700-
SOUTHEAST WISCONSIN

CITY           SKY/WX    TMP DP  RH WIND       PRES   REMARKS
MILWAUKEE      PTCLDY    23  11  60 W6        30.23R WCI  16
6HR MIN TEMP:  22; 6HR MAX TEMP:  24;

WAUKESHA       CLEAR     18  12  79 CALM      30.22S
MILWAUKEE/TIMM CLEAR     19  12  73 CALM      30.23S
RACINE         CLEAR     23  11  60 N5        30.24R WCI  17
6HR MIN TEMP:  22; 6HR MAX TEMP:  24;

BURLINGTON     CLEAR     15  12  89 CALM      30.22S
KENOSHA        CLEAR     20  13  74 NW5       30.22S WCI  13
6HR MIN TEMP:  17; 6HR MAX TEMP:  24;

FOND DU LAC    CLEAR     17  11  77 CALM      30.22S
6HR MIN TEMP:  17; 6HR MAX TEMP:  27;

SHEBOYGAN      CLEAR     17  13  84 CALM      30.23R
6HR MIN TEMP:  16; 6HR MAX TEMP:  24;

WEST BEND      CLEAR     18  14  86 CALM      30.22S
JUNEAU         CLEAR     19  12  75 CALM      30.22F
$$

LSZ147-162-280700-
LAKE SUPERIOR

STATION/POSITION TIME  TEMP    WIND        PRES    WAVE
                       AIR SEA DIR/SP/G            HT/PER
                 (UTC) (F)     (DEG/KT/KT) (MB)    (FT/S)
DEVILS ISLAND    0500   24      80/  2/  3 1024.6R
PORT WING        0500   18     160/  2/  3 1023.0
SAXON HARBOR     0500   14        CALM     1023.0
$$

LMZ867-665-643>646-280700-
LAKE MICHIGAN

STATION/POSITION TIME  TEMP    WIND        PRES    WAVE
                       AIR SEA DIR/SP/G            HT/PER
                 (UTC) (F)     (DEG/KT/KT) (MB)    (FT/S)
NORTHPORT PIER   0519   18     360/  6/  9 1024.4R
SISTER BAY       0502   15        CALM       N/A
KEWAUNEE LAKESHO 0500   24      CALM  /  5 1022.8
SHEBOYGAN LAKESH 0500   25      30/  9/ 10 1024.9R
PORT WASHINGTON  0500   22     320/  3/  4 1024.4
MILWAUKEE LAKESH 0500   26      20/  8/ 10   N/A
KENOSHA   LAKESH 0500   27      10/ 11/ 17 1023.4S
$$

TC  - TEMPERATURE IN CELSIUS
VSB - VISIBILITY IN STATUTE MILES
WCI - WIND CHILL INDEX
HX  - HEAT INDEX



USA.gov is the U.S. government's official web portal to all federal, state and local government web resources and services.